LiveATC.Net - Listen to live air traffic control over the Internet!


ICAO: CYSB  IATA: YSB   Airport: Sudbury Airport
City: Sudbury   State/Province: Ontario
Country: Canada   Continent: North America
CYSB METAR Weather: CYSB 150400Z 24004KT 15SM SCT120 12/M01 A3015 RMK AC4 SLP217
CYSB Flight Activity (FlightAware)

CYSB Gnd/Twr/Center
Feed Status: UP   Listeners: 1
Listen in your browser - HTML5 player (in browser, HTML5)
Click here to listen with your own player (launches your MP3 player)
Archive Access: CYSB Gnd/Twr/Center
FacilityFrequency
Sudbury Ground121.800
Sudbury Tower125.500
Toronto Centre135.500

NOTICE

Unauthorized use prohibited. See LiveATC.net Terms of Service


Airport/ARTCC Code
Frequency Search
(e.g., 124.400, 128.75)
Site-wide search
 


Browse Feeds
Top 50 Feeds
HF Oceanic Feeds
Coverage Map
Bad Weather Areas

LiveATC FAQ
Offer LiveATC feed
Contact LiveATC.net
Press Inquiries

LiveATC on iPhone
LiveATC on Android

Windows Phone
Windows 8/10

LiveATC Mobile
(Mobile browser)

ATC Audio Archives
Interesting Recordings

LiveATC Forums


Home Page
About LiveATC.net
Make a Donation
Terms of Use
Privacy Policy

Canadian Air Freqs

AIRMETs/SIGMETs

FAA Airport Status
NAS Status
Arrival Demand


Server Software By:
Icecast.org
Liquidsoap